Simultaneous Nadir Overpasses (SNOs) Predictions

Prediction of SNOs between METOP-A and TERRA Satellite Orbit:

Table of predicted SNOs for the next 14.0 days since TLE Epoch: 5/25/2013
Index Date (METOP-A) Time (METOP-A) Lat,Lon (METOP-A) SZA (METOP-A ) Date (TERRA) Time (TERRA) Lat,Lon (TERRA) SZA (TERRA ) Distance(km) Time Diff (sec)
1 05/26/2013 22:56:12 -81.29, 62.59 117.05 05/26/2013 22:57:24 -81.28, 62.51 117.03 1.51 72
2 05/26/2013 23:46:51 81.30,-129.58 63.01 05/26/2013 23:46:49 81.29,-129.69 62.99 2.01 2
3 05/27/2013 00:37:06 -81.30, 47.67 115.76 05/27/2013 00:35:52 -81.68, 47.33 115.66 42.29 74
4 05/29/2013 18:30:32 -81.29, 129.23 117.48 05/29/2013 18:31:40 -81.29, 129.06 117.47 2.90 68
5 05/29/2013 19:21:13 81.29, -63.36 62.53 05/29/2013 19:21:06 81.30, -63.17 62.55 3.21 7
6 06/
